TimePDT,TemperatureF,Dew PointF,Humidity,Sea Level PressureIn,VisibilityMPH,Wind Direction,Wind SpeedMPH,Gust SpeedMPH,PrecipitationIn,Events,Conditions,WindDirDegrees,DateUTC
12:53 AM,43.0,18.0,37,29.60,10.0,South,9.2,16.1,N/A,,Clear,170,2012-03-25 07:53:00
1:53 AM,42.1,17.1,37,29.60,10.0,SSE,6.9,-,N/A,,Clear,150,2012-03-25 08:53:00
2:53 AM,42.1,15.1,34,29.57,10.0,Variable,6.9,-,N/A,,Clear,0,2012-03-25 09:53:00
3:53 AM,39.9,14.0,35,29.54,10.0,Variable,5.8,-,N/A,,Clear,0,2012-03-25 10:53:00
4:53 AM,35.1,16.0,46,29.57,10.0,Calm,Calm,-,N/A,,Clear,0,2012-03-25 11:53:00
5:53 AM,37.9,19.0,47,29.58,10.0,SSW,12.7,18.4,N/A,,Partly Cloudy,200,2012-03-25 12:53:00
6:30 AM,35.6,24.8,65,29.69,2.5,SSW,12.7,24.2,0.00,Snow,Light Snow,200,2012-03-25 13:30:00
6:38 AM,33.8,26.6,75,29.70,1.0,SSW,10.4,20.7,0.00,Snow,Light Snow,200,2012-03-25 13:38:00
6:53 AM,33.1,28.0,82,29.64,1.5,SSW,5.8,-,0.00,Snow,Light Snow,200,2012-03-25 13:53:00
7:04 AM,33.8,26.6,75,29.71,2.5,Variable,3.5,-,0.00,Snow,Light Snow,0,2012-03-25 14:04:00
7:13 AM,33.8,26.6,75,29.70,4.0,Calm,Calm,-,0.00,Snow,Light Snow,0,2012-03-25 14:13:00
7:20 AM,32.0,26.6,80,29.71,9.0,SW,4.6,-,0.00,,Mostly Cloudy,230,2012-03-25 14:20:00
7:28 AM,33.8,24.8,70,29.72,10.0,Variable,3.5,-,0.00,,Scattered Clouds,0,2012-03-25 14:28:00
7:40 AM,33.8,24.8,70,29.73,1.8,SSW,13.8,23.0,0.00,Snow,Light Snow,200,2012-03-25 14:40:00
7:49 AM,33.8,26.6,75,29.74,0.2,South,11.5,25.3,0.00,Snow,Heavy Snow,190,2012-03-25 14:49:00
7:53 AM,32.0,27.0,82,29.70,0.2,South,9.2,19.6,0.00,Snow,Heavy Snow,190,2012-03-25 14:53:00
8:06 AM,32.0,28.4,87,29.75,0.5,South,8.1,-,0.00,Fog-Snow,Snow,190,2012-03-25 15:06:00
8:11 AM,32.0,28.4,87,29.75,0.2,South,5.8,-,0.01,Fog-Snow,Snow,190,2012-03-25 15:11:00
8:38 AM,32.0,26.6,80,29.76,0.5,South,11.5,-,0.02,Snow,Snow,180,2012-03-25 15:38:00
8:43 AM,32.0,26.6,80,29.76,1.2,South,10.4,-,0.02,Snow,Light Snow,180,2012-03-25 15:43:00
8:53 AM,32.0,25.0,75,29.73,1.5,South,13.8,21.9,0.02,Snow,Light Snow,190,2012-03-25 15:53:00
9:01 AM,33.8,24.8,70,29.75,3.0,South,11.5,21.9,0.00,Snow,Light Snow,180,2012-03-25 16:01:00
9:10 AM,33.8,24.8,70,29.75,9.0,South,10.4,-,0.00,,Overcast,190,2012-03-25 16:10:00
9:53 AM,37.0,21.0,52,29.71,10.0,South,11.5,-,0.00,,Overcast,170,2012-03-25 16:53:00
10:53 AM,39.9,19.9,45,29.66,10.0,SSW,11.5,19.6,N/A,,Mostly Cloudy,200,2012-03-25 17:53:00
11:53 AM,41.0,21.2,45,29.73,10.0,SSW,10.4,18.4,N/A,,Clear,210,2012-03-25 18:53:00
12:53 PM,42.1,19.0,40,29.65,10.0,South,15.0,21.9,N/A,,Clear,190,2012-03-25 19:53:00
1:53 PM,43.0,19.9,40,29.63,10.0,SSW,11.5,20.7,N/A,,Overcast,210,2012-03-25 20:53:00
2:53 PM,43.0,16.0,34,29.62,10.0,South,11.5,21.9,N/A,,Mostly Cloudy,190,2012-03-25 21:53:00
3:53 PM,39.9,19.9,45,29.64,10.0,SSW,9.2,20.7,N/A,,Scattered Clouds,210,2012-03-25 22:53:00
4:53 PM,39.0,19.9,46,29.63,10.0,South,8.1,-,N/A,,Partly Cloudy,190,2012-03-25 23:53:00
5:53 PM,39.0,19.0,45,29.61,10.0,Variable,6.9,18.4,N/A,,Clear,0,2012-03-26 00:53:00
6:53 PM,36.0,23.0,59,29.67,10.0,Calm,Calm,-,N/A,,Mostly Cloudy,0,2012-03-26 01:53:00
7:05 PM,33.8,24.8,70,29.70,2.5,WSW,3.5,-,0.00,Snow,Light Snow,240,2012-03-26 02:05:00
7:13 PM,33.8,26.6,75,29.70,1.0,Calm,Calm,-,0.00,Snow,Light Snow,0,2012-03-26 02:13:00
7:28 PM,33.8,26.6,75,29.70,3.0,SW,4.6,-,0.00,Snow,Light Snow,220,2012-03-26 02:28:00
7:36 PM,33.8,26.6,75,29.70,9.0,Variable,3.5,-,0.00,,Overcast,0,2012-03-26 02:36:00
7:53 PM,33.1,26.1,75,29.68,6.0,Calm,Calm,-,0.00,Snow,Light Snow,0,2012-03-26 02:53:00
8:01 PM,33.8,24.8,70,29.70,4.0,SSW,5.8,-,N/A,Snow,Light Snow,210,2012-03-26 03:01:00
8:10 PM,33.8,24.8,70,29.70,7.0,South,4.6,-,0.00,Snow,Light Snow,190,2012-03-26 03:10:00
8:41 PM,33.8,24.8,70,29.71,3.0,SSW,3.5,-,0.00,Snow,Light Snow,200,2012-03-26 03:41:00
8:53 PM,33.1,25.0,72,29.69,6.0,Calm,Calm,-,0.00,Snow,Light Snow,0,2012-03-26 03:53:00
9:02 PM,33.8,24.8,70,29.72,2.5,SSW,5.8,-,0.00,Snow,Light Snow,210,2012-03-26 04:02:00
9:18 PM,32.0,24.8,75,29.72,1.2,SW,3.5,-,0.00,Snow,Light Snow,220,2012-03-26 04:18:00
9:30 PM,30.2,24.8,80,29.73,0.8,South,6.9,-,0.00,Snow,Light Snow,190,2012-03-26 04:30:00
9:49 PM,30.2,24.8,80,29.73,1.8,SSW,3.5,-,0.01,Snow,Light Snow,200,2012-03-26 04:49:00
9:53 PM,30.9,26.1,82,29.71,4.0,Calm,Calm,-,0.01,Snow,Light Snow,0,2012-03-26 04:53:00
10:00 PM,30.2,24.8,80,29.74,8.0,Calm,Calm,-,0.00,,Overcast,0,2012-03-26 05:00:00
10:53 PM,32.0,21.9,66,29.68,10.0,SW,4.6,-,0.00,,Scattered Clouds,220,2012-03-26 05:53:00
11:53 PM,30.0,21.9,72,29.69,10.0,Calm,Calm,-,N/A,,Partly Cloudy,0,2012-03-26 06:53:00